DW9945 Weather Reports


time (UTC)temp
F
wind
direction
speed
knots
gust
knots
rain 1hr
in
rain 24hr
in
rain mn
in
humidity
%
barometer
mb
20260507221518 48 29 0.0 0.0 0.00 0.26 0.00 88 1013.5
20260507221018 48 29 0.0 0.0 0.00 0.26 0.00 88 1013.6
20260507220519 48 29 0.0 0.0 0.00 0.26 0.00 88 1013.6
20260507220019 48 29 0.0 0.0 0.00 0.26 0.00 88 1013.6
20260507215518 48 29 0.0 0.0 0.00 0.26 0.26 88 1013.6
20260507215018 48 29 0.0 0.0 0.00 0.26 0.26 89 1013.6
20260507214507 48 29 0.0 0.0 0.00 0.26 0.26 88 1013.6
20260507214018 48 29 0.0 0.0 0.00 0.26 0.26 88 1013.4
20260507213518 48 29 0.0 0.0 0.00 0.26 0.26 88 1013.4
20260507212518 49 0 0.0 0.0 0.00 0.26 0.26 88 1013.4
20260507212018 49 0 0.0 0.0 0.00 0.26 0.26 88 1013.3
20260507211519 48 0 0.0 0.0 0.00 0.26 0.26 87 1013.3
20260507210519 49 0 0.0 0.0 0.00 0.26 0.26 85 1013.3
20260507210018 49 0 0.0 0.0 0.00 0.26 0.26 85 1013.2
20260507205517 49 0 0.0 0.0 0.00 0.26 0.26 85 1012.9
20260507205007 49 0 0.0 0.0 0.00 0.26 0.26 85 1012.8
20260507204518 49 0 0.0 0.0 0.00 0.26 0.26 85 1012.7
20260507204007 49 349 0.0 0.0 0.00 0.26 0.26 83 1012.6
20260507203518 50 349 0.0 0.0 0.00 0.26 0.26 82 1012.5
20260507203018 51 349 0.0 0.0 0.00 0.26 0.26 81 1012.5
20260507202518 52 105 0.0 0.0 0.00 0.26 0.26 83 1012.3
20260507201518 52 175 1.7 4.3 0.00 0.26 0.26 84 1012.2
20260507201018 51 69 1.7 2.6 0.00 0.26 0.26 84 1012.2
20260507200519 51 5 0.0 0.0 0.00 0.26 0.26 83 1012.3
20260507195507 52 5 0.0 0.0 0.00 0.26 0.26 81 1012.1
20260507195018 52 5 0.0 0.0 0.00 0.26 0.26 80 1012.0
20260507194018 52 5 0.0 0.0 0.00 0.26 0.26 82 1011.9
20260507193018 52 350 0.0 0.0 0.00 0.26 0.26 80 1011.6
20260507192506 52 350 0.0 2.6 0.00 0.26 0.26 81 1011.6
20260507192018 52 353 2.6 4.3 0.00 0.26 0.26 82 1011.4
20260507191018 52 341 2.6 4.3 0.00 0.26 0.26 80 1011.2
20260507190518 53 340 3.5 4.3 0.00 0.26 0.26 80 1011.2
20260507190008 53 340 4.3 4.3 0.00 0.26 0.26 79 1011.0
20260507185518 54 341 2.6 4.3 0.00 0.26 0.26 78 1011.1
20260507184519 55 357 2.6 4.3 0.00 0.26 0.26 77 1010.8
20260507183018 56 3 2.6 2.6 0.00 0.26 0.26 73 1010.7
20260507182507 56 5 1.7 2.6 0.00 0.26 0.26 74 1010.7
20260507182018 56 5 1.7 4.3 0.00 0.26 0.26 72 1010.6
20260507181518 57 355 2.6 4.3 0.00 0.26 0.26 72 1010.5
20260507181017 57 331 1.7 2.6 0.00 0.26 0.26 72 1010.5
20260507180517 57 317 2.6 2.6 0.00 0.26 0.26 69 1010.6
20260507180018 57 317 2.6 4.3 0.00 0.26 0.26 69 1010.7
20260507175518 57 317 2.6 6.1 0.00 0.26 0.26 70 1010.7
20260507175018 56 304 1.7 7.0 0.00 0.26 0.26 70 1010.7
20260507174518 56 316 6.1 10.4 0.00 0.26 0.26 72 1010.7
20260507174018 56 314 6.1 10.4 0.00 0.26 0.26 71 1010.7
20260507173518 56 308 5.2 10.4 0.00 0.26 0.26 71 1010.6
20260507173018 56 301 7.8 10.4 0.00 0.26 0.26 72 1010.6
20260507172517 55 320 4.3 7.0 0.00 0.26 0.26 72 1010.4
20260507172017 54 286 6.1 10.4 0.00 0.26 0.26 76 1010.3
20260507171517 54 314 4.3 10.4 0.00 0.26 0.26 76 1010.3
20260507171018 53 135 0.9 7.8 0.00 0.26 0.26 75 1010.1
20260507165517 53 89 3.5 10.4 0.01 0.26 0.26 76 1010.3
20260507164517 53 98 4.3 7.8 0.02 0.26 0.26 75 1010.3
20260507164017 52 96 5.2 8.7 0.02 0.26 0.26 77 1010.5
20260507163517 52 128 4.3 11.3 0.05 0.26 0.26 78 1010.5
20260507163018 52 99 6.1 10.4 0.06 0.26 0.26 79 1010.5
20260507162517 52 96 5.2 8.7 0.06 0.26 0.26 80 1010.7
20260507162017 52 102 4.3 7.8 0.06 0.26 0.26 82 1010.7
20260507161518 52 104 4.3 8.7 0.07 0.26 0.26 82 1010.8
20260507161017 52 120 4.3 7.0 0.07 0.26 0.26 82 1010.8
20260507160518 52 93 4.3 7.0 0.07 0.26 0.26 84 1010.9
20260507160018 52 106 2.6 6.1 0.07 0.26 0.26 82 1011.2
20260507155517 51 136 1.7 2.6 0.06 0.25 0.25 83 1011.3
20260507155018 51 292 3.5 7.0 0.06 0.25 0.25 83 1011.4
20260507154518 51 307 5.2 7.8 0.06 0.24 0.24 83 1011.3
20260507153518 52 284 5.2 8.7 0.03 0.21 0.21 81 1011.4
20260507152506 52 311 4.3 7.8 0.04 0.20 0.20 78 1011.2
20260507152017 53 285 5.2 10.4 0.04 0.20 0.20 76 1011.2
20260507151517 53 281 2.6 10.4 0.03 0.19 0.19 76 1011.3
20260507151017 52 325 6.1 10.4 0.03 0.19 0.19 77 1011.4
20260507150518 52 1 6.1 10.4 0.03 0.19 0.19 83 1011.4
20260507145517 53 28 6.1 8.7 0.04 0.19 0.19 80 1011.3
20260507145017 53 349 5.2 7.8 0.04 0.19 0.19 80 1011.4
20260507144517 53 348 6.1 8.7 0.06 0.19 0.19 79 1011.3
20260507144017 53 351 4.3 7.0 0.12 0.19 0.19 78 1011.4
20260507143018 53 336 4.3 7.0 0.16 0.18 0.18 81 1011.4
20260507142517 53 350 2.6 4.3 0.16 0.17 0.17 79 1011.2
20260507141517 53 60 2.6 8.7 0.16 0.16 0.16 77 1011.1
20260507141017 53 90 5.2 10.4 0.16 0.16 0.16 77 1011.0
20260507140518 53 99 6.1 8.7 0.16 0.16 0.16 75 1011.2
20260507140018 53 122 6.1 10.4 0.16 0.16 0.16 73 1011.3
20260507135517 53 132 3.5 10.4 0.15 0.15 0.15 72 1011.2
20260507135017 53 122 1.7 7.8 0.15 0.15 0.15 73 1011.4
20260507134518 54 155 4.3 19.1 0.13 0.13 0.13 70 1011.4
20260507134017 54 188 12.2 22.6 0.07 0.07 0.07 71 1011.6
20260507133517 53 167 5.2 13.0 0.05 0.05 0.05 75 1011.5
20260507133018 53 163 6.1 15.6 0.02 0.02 0.02 79 1011.6
20260507132517 54 173 8.7 15.6 0.01 0.01 0.01 76 1011.4
20260507132017 55 166 9.6 17.4 0.01 0.01 0.01 73 1011.3
20260507131517 55 160 7.8 14.8 0.00 0.00 0.00 75 1011.2
20260507130517 55 174 8.7 14.8 0.00 0.00 0.00 75 1011.1
20260507130027 55 170 6.1 14.8 0.00 0.00 0.00 75 1011.0
20260507125517 55 158 7.8 13.9 0.00 0.00 0.00 75 1010.7
20260507124518 55 149 9.6 17.4 0.00 0.00 0.00 76 1010.4
20260507123517 56 159 8.7 17.4 0.00 0.00 0.00 75 1010.7
20260507123017 56 145 8.7 14.8 0.00 0.00 0.00 75 1010.7
20260507122517 56 150 4.3 11.3 0.00 0.00 0.00 75 1010.8
20260507122017 57 166 8.7 17.4 0.00 0.00 0.00 72 1010.6
20260507121517 58 153 7.8 17.4 0.00 0.00 0.00 67 1010.5
20260507121017 60 154 8.7 13.9 0.00 0.00 0.00 62 1010.5
20260507120517 61 176 4.3 7.8 0.00 0.00 0.00 61 1010.3
20260507120017 61 169 2.6 5.2 0.00 0.00 0.00 61 1010.5
20260507115517 61 243 2.6 5.2 0.00 0.00 0.00 61 1010.3
20260507115017 62 162 0.9 2.6 0.00 0.00 0.00 61 1010.1
20260507114518 62 206 0.9 6.1 0.00 0.00 0.00 61 1010.1
20260507114017 62 185 2.6 8.7 0.00 0.00 0.00 60 1010.1
20260507113518 62 225 1.7 2.6 0.00 0.00 0.00 61 1010.2
20260507113018 61 17 1.7 2.6 0.00 0.00 0.00 62 1010.5
20260507112517 61 33 0.0 4.3 0.00 0.00 0.00 62 1010.6
20260507112017 61 5 1.7 2.6 0.00 0.00 0.00 63 1010.6
20260507111507 60 286 3.5 5.2 0.00 0.00 0.00 64 1010.7
20260507111017 60 278 3.5 5.2 0.00 0.00 0.00 64 1010.8
20260507110517 60 321 3.5 7.0 0.00 0.00 0.00 65 1010.9
20260507110018 60 300 3.5 7.0 0.00 0.00 0.00 64 1010.8
20260507105517 61 307 2.6 6.1 0.00 0.00 0.00 64 1010.9
20260507105017 61 325 0.9 4.3 0.00 0.00 0.00 63 1011.0
20260507104517 61 232 0.0 1.7 0.00 0.00 0.00 64 1011.1
20260507103517 60 184 1.7 7.0 0.00 0.00 0.00 63 1011.3
20260507103018 60 185 0.9 6.1 0.00 0.00 0.00 64 1011.3
20260507102521 60 212 2.6 7.0 0.00 0.00 0.00 64 1011.3
20260507101019 59 177 1.7 5.2 0.00 0.00 0.00 66 1011.3
20260507100519 58 132 4.3 7.0 0.00 0.00 0.00 66 1011.3
20260507095519 59 5 1.7 4.3 0.00 0.00 0.00 66 1011.3
20260507095018 59 65 4.3 6.1 0.00 0.00 0.00 66 1011.5
20260507094519 59 76 3.5 7.8 0.00 0.00 0.00 66 1011.6
20260507094019 59 48 0.0 4.3 0.00 0.00 0.00 67 1011.6
20260507093519 58 16 1.7 6.1 0.00 0.00 0.00 68 1011.6
20260507093019 58 77 1.7 7.0 0.00 0.00 0.00 68 1011.6
20260507092519 58 70 1.7 6.1 0.00 0.00 0.00 69 1011.6
20260507091019 56 72 2.6 4.3 0.00 0.00 0.00 71 1011.7
20260507090519 56 77 1.7 2.6 0.00 0.00 0.00 72 1011.6
20260507090020 55 165 1.7 4.3 0.00 0.00 0.00 71 1011.7
20260507085519 55 82 0.0 1.7 0.00 0.00 0.00 73 1011.7
20260507084508 55 111 1.7 2.6 0.00 0.00 0.00 73 1011.7
20260507084019 55 139 0.0 0.0 0.00 0.00 0.00 74 1011.7
20260507083519 55 127 0.9 2.6 0.00 0.00 0.00 73 1011.7
20260507082518 56 77 2.6 7.0 0.00 0.00 0.00 71 1011.6
20260507082018 56 108 1.7 7.0 0.00 0.00 0.00 70 1011.6
20260507081519 56 86 3.5 7.0 0.00 0.00 0.00 70 1011.4
20260507081019 55 8 2.6 7.0 0.00 0.00 0.00 71 1011.5
20260507080019 55 30 3.5 5.2 0.00 0.00 0.00 72 1011.6
20260507075018 55 38 2.6 5.2 0.00 0.00 0.00 73 1011.6
20260507074519 55 23 2.6 6.1 0.00 0.00 0.00 73 1011.6
20260507074018 54 31 1.7 4.3 0.00 0.00 0.00 74 1011.6
20260507073019 54 66 4.3 7.0 0.00 0.00 0.00 73 1011.6
20260507072519 54 38 3.5 7.8 0.00 0.00 0.00 73 1011.6
20260507071519 54 48 4.3 7.8 0.00 0.00 0.00 73 1011.7
20260507071019 54 69 3.5 7.8 0.00 0.00 0.00 74 1011.6
20260507070519 54 69 2.6 5.2 0.00 0.00 0.00 74 1011.6
20260507070011 53 55 2.6 6.1 0.00 0.00 0.00 75 1011.5
20260507065519 53 57 2.6 6.1 0.00 0.00 0.00 76 1011.5
20260507065018 52 50 1.7 2.6 0.00 0.00 0.00 77 1011.3
20260507064519 52 29 3.5 7.8 0.00 0.00 0.00 77 1011.4
20260507063519 51 28 1.7 5.2 0.00 0.00 0.00 78 1011.2
20260507063019 51 37 1.7 4.3 0.00 0.00 0.00 78 1011.2
20260507062519 51 43 1.7 5.2 0.00 0.00 0.00 78 1011.2
20260507062007 51 34 2.6 7.0 0.00 0.00 0.00 78 1011.1
20260507061519 51 45 1.7 5.2 0.00 0.00 0.00 78 1011.1
20260507060519 51 56 4.3 7.8 0.00 0.00 0.00 77 1011.0
20260507060019 51 37 2.6 7.0 0.00 0.00 0.00 78 1010.9
20260507055519 50 41 3.5 7.8 0.00 0.00 0.00 78 1010.9
20260507054519 50 40 4.3 8.7 0.00 0.00 0.00 78 1010.9
20260507054018 50 31 5.2 10.4 0.00 0.00 0.00 79 1010.9
20260507053518 50 29 4.3 7.8 0.00 0.00 0.00 79 1010.9
20260507053019 50 26 5.2 10.4 0.00 0.00 0.00 79 1010.9
20260507052519 49 26 4.3 7.8 0.00 0.00 0.00 80 1010.9
20260507052019 49 27 4.3 10.4 0.00 0.00 0.00 80 1010.9
20260507051519 49 33 4.3 8.7 0.00 0.00 0.00 80 1010.9
20260507051020 49 12 4.3 7.8 0.00 0.00 0.00 80 1011.0
20260507050519 49 16 4.3 7.0 0.00 0.00 0.00 80 1011.0
20260507050019 49 25 4.3 7.8 0.00 0.00 0.00 80 1011.0
20260507045018 49 30 4.3 8.7 0.00 0.00 0.00 81 1010.8
20260507044518 49 12 4.3 7.8 0.00 0.00 0.00 80 1010.8
20260507044018 49 12 2.6 6.1 0.00 0.00 0.00 80 1010.9
20260507043518 49 14 3.5 7.0 0.00 0.00 0.00 80 1010.9
20260507043019 49 8 2.6 6.1 0.00 0.00 0.00 80 1011.0
20260507042518 49 3 2.6 7.0 0.00 0.00 0.00 81 1010.8
20260507041518 49 10 2.6 6.1 0.00 0.00 0.00 80 1010.9
20260507041018 49 10 4.3 7.0 0.00 0.00 0.00 80 1011.0
20260507040019 49 10 4.3 7.8 0.00 0.00 0.00 79 1011.0
20260507035519 49 6 2.6 6.1 0.00 0.00 0.00 79 1011.1
20260507035008 49 15 2.6 5.2 0.00 0.00 0.00 79 1011.1
20260507034519 49 21 2.6 7.0 0.00 0.00 0.00 79 1011.0
20260507034019 49 18 2.6 6.1 0.00 0.00 0.00 79 1011.0
20260507033519 49 29 2.6 7.0 0.00 0.00 0.00 79 1010.9
20260507033019 49 17 4.3 7.8 0.00 0.00 0.00 79 1011.0
20260507032519 49 12 4.3 7.8 0.00 0.00 0.00 78 1011.0
20260507032019 49 13 4.3 7.0 0.00 0.00 0.00 79 1011.0
20260507031519 49 19 3.5 7.8 0.00 0.00 0.00 79 1011.0
20260507031019 49 16 4.3 8.7 0.00 0.00 0.00 79 1011.0
20260507030519 49 8 5.2 7.8 0.00 0.00 0.00 79 1010.9
20260507025518 49 0 4.3 7.0 0.00 0.00 0.00 80 1011.0
20260507024519 49 11 1.7 4.3 0.00 0.00 0.00 80 1010.9
20260507024019 49 3 3.5 5.2 0.00 0.00 0.00 79 1010.9
20260507023519 49 0 2.6 4.3 0.00 0.00 0.00 79 1010.8
20260507023019 49 351 2.6 5.2 0.00 0.00 0.00 79 1010.9
20260507022019 48 0 3.5 6.1 0.00 0.00 0.00 79 1011.0
20260507021018 49 351 3.5 6.1 0.00 0.00 0.00 78 1011.0
20260507020518 49 1 4.3 6.1 0.00 0.00 0.00 78 1011.0
20260507020019 49 0 1.7 2.6 0.00 0.00 0.00 77 1011.0
20260507015518 49 351 2.6 5.2 0.00 0.00 0.00 77 1011.0
20260507015018 49 2 1.7 2.6 0.00 0.00 0.00 77 1010.9
20260507014019 49 5 0.9 2.6 0.00 0.00 0.00 76 1011.0
20260507013519 50 6 1.7 2.6 0.00 0.00 0.00 74 1011.0
20260507013018 50 16 0.0 0.0 0.00 0.00 0.00 73 1011.1
20260507012507 50 16 0.9 2.6 0.00 0.00 0.00 72 1011.1
20260507012018 51 14 1.7 2.6 0.00 0.00 0.00 71 1011.0
20260507011519 51 27 1.7 2.6 0.00 0.00 0.00 71 1011.0
20260507011008 51 27 1.7 4.3 0.00 0.00 0.00 70 1010.9
20260507010520 51 26 1.7 5.2 0.00 0.00 0.00 70 1011.0
20260507010007 51 36 0.9 2.6 0.00 0.00 0.00 69 1011.0
20260507005507 52 21 0.9 2.6 0.00 0.00 0.00 68 1011.1
20260507005007 52 30 1.7 2.6 0.00 0.00 0.00 68 1011.1
20260507004507 52 46 1.7 5.2 0.00 0.00 0.00 67 1011.1
20260507004007 52 46 2.6 5.2 0.00 0.00 0.00 67 1011.1
20260507003507 52 51 3.5 7.8 0.00 0.00 0.00 67 1011.2
20260507003007 52 47 4.3 8.7 0.00 0.00 0.00 66 1011.1
20260507002507 52 63 4.3 7.8 0.00 0.00 0.00 67 1011.3
20260507002007 52 57 2.6 7.8 0.00 0.00 0.00 66 1011.3
20260507001508 52 45 4.3 8.7 0.00 0.00 0.00 66 1011.3
20260507001008 52 30 4.3 10.4 0.00 0.00 0.00 66 1011.2
20260507000508 53 53 4.3 7.8 0.00 0.00 0.00 66 1011.2
20260506235510 53 56 6.1 10.4 0.00 0.00 0.00 65 1011.2
20260506235007 53 55 5.2 10.4 0.00 0.00 0.00 64 1011.0
20260506234507 53 45 6.1 13.0 0.00 0.00 0.00 64 1010.9
20260506234007 53 31 5.2 8.7 0.00 0.00 0.00 64 1010.8
20260506233507 53 29 5.2 11.3 0.00 0.00 0.00 64 1010.9
20260506233007 53 35 4.3 10.4 0.00 0.00 0.00 63 1010.9
20260506232507 53 34 4.3 10.4 0.00 0.00 0.00 63 1010.9
20260506232007 53 35 4.3 10.4 0.00 0.00 0.00 62 1010.9
20260506231508 53 36 5.2 10.4 0.00 0.00 0.00 63 1010.9
20260506230508 51 37 1.7 5.2 0.00 0.00 0.00 65 1010.9
20260506230007 51 11 1.7 5.2 0.00 0.00 0.00 65 1010.9
20260506225507 51 355 4.3 5.2 0.00 0.00 0.00 63 1011.0
20260506225007 51 356 4.3 6.1 0.00 0.00 0.00 62 1011.0
20260506224507 51 352 4.3 7.0 0.00 0.00 0.00 60 1010.9
20260506224007 51 357 4.3 7.8 0.00 0.00 0.00 58 1010.8
20260506223508 52 14 3.5 6.1 0.00 0.00 0.00 57 1010.8
20260506222507 52 16 4.3 6.1 0.00 0.00 0.00 55 1010.9
20260506222007 52 15 4.3 6.1 0.00 0.00 0.00 55 1010.9